Location: Civry
(47.2902°N, 4.6156°E)
Time: 17:54:00
(UTC+00:00)

Cosmos 841 Rocket - Pass Details

Date: 09 April 2020
Orbit: 747 x 772 km, 74.0° (Epoch: 24 May)

Event Time Altitude Azimuth Distance (km) Brightness Sun altitude
Rises 20:20:46 0° 342° (NNW) 3,259 7.6 -19.0°
Reaches altitude 10° 20:23:19 10° 350° (N) 2,327 6.6 -19.3°
Maximum altitude 20:28:17 40° 59° (ENE) 1,137 4.2 -20.0°
Enters shadow 20:29:30 34° 91° (E) 1,242 4.2 -20.1°
